STARLINK-36941

Last updated on Mon Mar 30 2026 00:02:05 GMT+0000 (Coordinated Universal Time)

1 67991U 26039F 26087.97388826 .00080353 00000+0 13611-2 0 9998 2 67991 42.9988 300.8307 0000920 267.8388 92.2367 15.50586608 4645
UTC large
Height (km)
Speed (km/s)
/
Latitude / Longitude
Inclination (degrees)
Orbital Period (minutes)
Azimuth
Elevation
Range (km)
Doppler Factor

Next 0 passes for location: London (51.5072 / 0.1276)

Sorry there are no passes over London.